TimeMST,TemperatureF,Dew PointF,Humidity,Sea Level PressureIn,VisibilityMPH,Wind Direction,Wind SpeedMPH,Gust SpeedMPH,PrecipitationIn,Events,Conditions,WindDirDegrees,DateUTC
12:15 AM,68.0,33.8,28,30.18,10.0,SSE,3.5,-,N/A,,Clear,160,2012-10-05 07:15:00
12:35 AM,68.0,33.8,28,30.18,10.0,SSE,3.5,-,N/A,,Clear,150,2012-10-05 07:35:00
12:55 AM,68.0,33.8,28,30.18,10.0,South,3.5,-,N/A,,Clear,170,2012-10-05 07:55:00
1:15 AM,68.0,33.8,28,30.18,10.0,Calm,Calm,-,N/A,,Clear,0,2012-10-05 08:15:00
1:35 AM,68.0,33.8,28,30.18,10.0,Calm,Calm,-,N/A,,Clear,0,2012-10-05 08:35:00
1:55 AM,68.0,33.8,28,30.18,10.0,Calm,Calm,-,N/A,,Clear,0,2012-10-05 08:55:00
2:15 AM,68.0,33.8,28,30.18,10.0,Calm,Calm,-,N/A,,Clear,0,2012-10-05 09:15:00
2:35 AM,64.4,33.8,32,30.18,10.0,NE,4.6,-,N/A,,Clear,40,2012-10-05 09:35:00
2:55 AM,62.6,33.8,34,30.17,10.0,NE,4.6,-,N/A,,Clear,50,2012-10-05 09:55:00
3:15 AM,62.6,33.8,34,30.17,10.0,NE,8.1,-,N/A,,Clear,40,2012-10-05 10:15:00
3:35 AM,62.6,33.8,34,30.17,10.0,ENE,5.8,-,N/A,,Clear,60,2012-10-05 10:35:00
3:55 AM,60.8,33.8,36,30.17,10.0,NE,8.1,-,N/A,,Clear,40,2012-10-05 10:55:00
4:15 AM,60.8,32.0,34,30.17,10.0,NNE,8.1,-,N/A,,Clear,30,2012-10-05 11:15:00
4:35 AM,62.6,32.0,32,30.17,10.0,NE,10.4,-,N/A,,Clear,40,2012-10-05 11:35:00
4:55 AM,60.8,32.0,34,30.17,10.0,NE,16.1,19.6,N/A,,Clear,40,2012-10-05 11:55:00
5:15 AM,62.6,32.0,32,30.18,10.0,NE,11.5,-,N/A,,Clear,50,2012-10-05 12:15:00
5:55 AM,60.8,32.0,34,30.18,10.0,NE,10.4,-,N/A,,Clear,40,2012-10-05 12:55:00
6:15 AM,60.8,32.0,34,30.19,10.0,NE,12.7,-,N/A,,Clear,40,2012-10-05 13:15:00
6:35 AM,60.8,32.0,34,30.19,10.0,NE,11.5,-,N/A,,Clear,40,2012-10-05 13:35:00
6:55 AM,59.0,32.0,36,30.19,10.0,NNE,10.4,-,N/A,,Clear,30,2012-10-05 13:55:00
7:35 AM,62.6,32.0,32,30.19,10.0,NE,4.6,-,N/A,,Clear,40,2012-10-05 14:35:00
7:55 AM,62.6,32.0,32,30.21,10.0,NNE,9.2,-,N/A,,Clear,30,2012-10-05 14:55:00
8:15 AM,66.2,33.8,30,30.21,10.0,East,3.5,-,N/A,,Clear,100,2012-10-05 15:15:00
8:35 AM,68.0,33.8,28,30.21,10.0,East,4.6,-,N/A,,Clear,100,2012-10-05 15:35:00
8:55 AM,71.6,33.8,25,30.21,10.0,ESE,3.5,-,N/A,,Clear,110,2012-10-05 15:55:00
9:15 AM,71.6,33.8,25,30.21,10.0,SSE,3.5,-,N/A,,Clear,160,2012-10-05 16:15:00
9:35 AM,71.6,33.8,25,30.22,10.0,SE,4.6,-,N/A,,Clear,130,2012-10-05 16:35:00
9:55 AM,73.4,33.8,23,30.22,10.0,SSE,4.6,-,N/A,,Clear,160,2012-10-05 16:55:00
10:15 AM,75.2,33.8,22,30.21,10.0,SE,4.6,-,N/A,,Clear,140,2012-10-05 17:15:00
10:35 AM,78.8,33.8,20,30.21,10.0,SSE,4.6,-,N/A,,Clear,150,2012-10-05 17:35:00
10:55 AM,78.8,32.0,18,30.20,10.0,SE,8.1,-,N/A,,Clear,140,2012-10-05 17:55:00
11:15 AM,78.8,32.0,18,30.20,10.0,SSW,6.9,-,N/A,,Clear,210,2012-10-05 18:15:00
11:35 AM,80.6,32.0,17,30.19,10.0,South,3.5,-,N/A,,Clear,190,2012-10-05 18:35:00
11:55 AM,78.8,32.0,18,30.18,10.0,SSW,6.9,-,N/A,,Clear,210,2012-10-05 18:55:00
12:15 PM,78.8,32.0,18,30.17,10.0,North,3.5,-,N/A,,Clear,10,2012-10-05 19:15:00
12:35 PM,82.4,32.0,16,30.17,10.0,SE,6.9,-,N/A,,Clear,140,2012-10-05 19:35:00
12:55 PM,80.6,30.2,16,30.16,10.0,South,5.8,-,N/A,,Clear,180,2012-10-05 19:55:00
1:15 PM,84.2,30.2,14,30.14,10.0,South,5.8,-,N/A,,Clear,170,2012-10-05 20:15:00
1:35 PM,80.6,30.2,16,30.14,10.0,West,4.6,-,N/A,,Clear,260,2012-10-05 20:35:00
1:55 PM,80.6,30.2,16,30.13,10.0,Calm,Calm,-,N/A,,Clear,0,2012-10-05 20:55:00
2:15 PM,82.4,30.2,15,30.12,10.0,SSE,4.6,-,N/A,,Clear,150,2012-10-05 21:15:00
2:35 PM,82.4,32.0,16,30.11,10.0,West,3.5,-,N/A,,Clear,280,2012-10-05 21:35:00
2:55 PM,82.4,30.2,15,30.10,10.0,WSW,6.9,-,N/A,,Clear,250,2012-10-05 21:55:00
3:15 PM,84.2,30.2,14,30.10,10.0,South,9.2,-,N/A,,Clear,190,2012-10-05 22:15:00
3:35 PM,82.4,30.2,15,30.09,10.0,South,10.4,17.3,N/A,,Clear,180,2012-10-05 22:35:00
3:55 PM,82.4,30.2,15,30.09,10.0,WSW,4.6,-,N/A,,Clear,240,2012-10-05 22:55:00
4:15 PM,82.4,30.2,15,30.09,10.0,SSW,9.2,-,N/A,,Clear,200,2012-10-05 23:15:00
4:35 PM,82.4,28.4,14,30.09,10.0,South,5.8,-,N/A,,Clear,180,2012-10-05 23:35:00
4:55 PM,80.6,28.4,15,30.09,10.0,SSW,11.5,-,N/A,,Clear,200,2012-10-05 23:55:00
5:15 PM,78.8,28.4,16,30.09,10.0,South,6.9,-,N/A,,Clear,180,2012-10-06 00:15:00
5:35 PM,78.8,30.2,17,30.09,10.0,South,9.2,-,N/A,,Clear,190,2012-10-06 00:35:00
5:55 PM,77.0,30.2,18,30.09,10.0,SSW,8.1,-,N/A,,Clear,210,2012-10-06 00:55:00
6:15 PM,77.0,32.0,19,30.10,10.0,SSW,8.1,-,N/A,,Clear,210,2012-10-06 01:15:00
6:35 PM,75.2,32.0,21,30.10,10.0,SSW,6.9,-,N/A,,Clear,210,2012-10-06 01:35:00
6:55 PM,73.4,32.0,22,30.10,10.0,SSW,10.4,-,N/A,,Clear,200,2012-10-06 01:55:00
7:15 PM,73.4,32.0,22,30.10,10.0,South,5.8,-,N/A,,Clear,180,2012-10-06 02:15:00
7:35 PM,73.4,32.0,22,30.11,10.0,South,4.6,-,N/A,,Clear,180,2012-10-06 02:35:00
7:55 PM,71.6,32.0,23,30.11,10.0,South,3.5,-,N/A,,Clear,190,2012-10-06 02:55:00
8:15 PM,71.6,32.0,23,30.11,10.0,SSE,8.1,-,N/A,,Clear,150,2012-10-06 03:15:00
8:35 PM,71.6,32.0,23,30.11,10.0,South,8.1,-,N/A,,Clear,180,2012-10-06 03:35:00
8:55 PM,71.6,32.0,23,30.11,10.0,South,8.1,-,N/A,,Clear,170,2012-10-06 03:55:00
9:15 PM,69.8,32.0,25,30.11,10.0,SSE,5.8,-,N/A,,Clear,150,2012-10-06 04:15:00
9:35 PM,69.8,32.0,25,30.11,10.0,SSE,5.8,-,N/A,,Clear,150,2012-10-06 04:35:00
9:55 PM,69.8,32.0,25,30.11,10.0,SSE,4.6,-,N/A,,Clear,150,2012-10-06 04:55:00
10:15 PM,69.8,32.0,25,30.11,10.0,SE,3.5,-,N/A,,Clear,140,2012-10-06 05:15:00
10:35 PM,69.8,32.0,25,30.11,10.0,Calm,Calm,-,N/A,,Clear,0,2012-10-06 05:35:00
10:55 PM,68.0,32.0,26,30.12,10.0,Calm,Calm,-,N/A,,Clear,0,2012-10-06 05:55:00
11:15 PM,68.0,32.0,26,30.11,10.0,NE,5.8,-,N/A,,Clear,50,2012-10-06 06:15:00
11:35 PM,66.2,32.0,28,30.11,10.0,NE,5.8,-,N/A,,Clear,40,2012-10-06 06:35:00
11:55 PM,64.4,32.0,30,30.11,10.0,NE,6.9,-,N/A,,Clear,40,2012-10-06 06:55:00